Location: *
(40.7873°S, 98.7174°E)
Time: 03:10:24
(UTC+00:00)

NOAA 17 DEB - Visible Passes

Search period start: 28 January 2023 00:00
Search period end: 07 February 2023 00:00
Orbit: 775 x 825 km, 98.7° (Epoch: 27 January)

Date Brightness Start Highest point End Pass type
(mag) Time Alt. Az. Time Alt. Az. Time Alt. Az.
28 Jan ? 18:27:30 46° ESE 18:27:41 46° ESE 18:32:40 10° S visible
28 Jan ? 20:08:26 21° W 20:08:26 21° W 20:11:32 10° SW visible
29 Jan ? 18:00:41 27° ESE 18:01:17 27° ESE 18:05:38 10° S visible
29 Jan ? 19:41:37 35° WSW 19:41:37 35° WSW 19:45:38 10° SSW visible
30 Jan ? 17:33:50 15° ESE 17:34:59 16° ESE 17:38:08 10° SSE visible
30 Jan ? 19:14:47 60° WSW 19:14:47 60° WSW 19:19:19 10° SSW visible
31 Jan ? 18:47:55 66° SE 18:47:55 66° SE 18:52:41 10° S visible
31 Jan ? 20:28:51 13° WSW 20:28:51 13° WSW 20:30:17 10° WSW visible
01 Feb ? 18:21:03 40° ESE 18:21:03 40° ESE 18:25:49 10° S visible
01 Feb ? 20:02:00 23° WSW 20:02:00 23° WSW 20:04:59 10° SW visible
02 Feb ? 17:54:10 24° ESE 17:54:32 24° ESE 17:58:37 10° SSE visible
02 Feb ? 19:35:06 38° WSW 19:35:06 38° WSW 19:38:54 10° SSW visible
03 Feb ? 17:27:15 14° ESE 17:28:12 14° ESE 17:30:50 10° SSE visible
03 Feb ? 19:08:11 58° SSW 19:08:11 58° SSW 19:12:25 10° SSW visible
04 Feb ? 18:41:17 54° SE 18:41:17 54° SE 18:45:41 10° S visible
04 Feb ? 20:22:12 14° WSW 20:22:12 14° WSW 20:23:47 10° SW visible
05 Feb ? 18:14:20 34° ESE 18:14:20 34° ESE 18:18:39 10° S visible
05 Feb ? 19:55:16 24° WSW 19:55:16 24° WSW 19:58:09 10° SW visible
06 Feb ? 17:47:23 21° ESE 17:47:31 21° ESE 17:51:17 10° SSE visible
06 Feb ? 19:28:19 38° SW 19:28:19 38° SW 19:31:52 10° SSW visible
